Weather History for Claremore, OK

Change the Weather History Date:

Monday, August 5, 2013

  Actual Average (KTUL) Record (KTUL)
Temperature  
Mean Temperature 84 °F 84 °F  
Max Temperature 95 °F 94 °F 112 °F (2011)
Min Temperature 73 °F 73 °F 57 °F (1920)
Cooling Degree Days 19 18  
Month to date cooling degree days 94  
Year to date cooling degree days 1262  
Since 1 June cooling degree days 1028  
Growing Degree Days 34 (Base 50)    
Moisture  
Dew Point 73 °F    
Average Humidity 75    
Maximum Humidity 94    
Minimum Humidity 49    
Precipitation  
Precipitation 0.00 in 0.08 in 1.64 in (1906)
Month to date precipitation 0.44  
Year to date precipitation 25.02  
Sea Level Pressure  
Sea Level Pressure 29.94 in    
Wind  
Wind Speed 7 mph (South)    
Max Wind Speed 14 mph    
Max Gust Speed 18 mph    
Visibility 10 miles    
Events      
T = Trace of Precipitation, MM = Missing Value Source: NWS Daily Summary

Daily Weather History Graph

Daily Weather History Graph

Search for Another Location

Airport:

Trip Planner

Search our weather history database for the weather conditions in past years. The results will help you decide how hot, cold, wet, or windy it might be!

Date:

Astronomy

Aug. 05, 2013 Rise Set
Actual Time 6:32 AM CDT 8:23 PM CDT
Civil Twilight 6:03 AM CDT 8:51 PM CDT
Nautical Twilight 5:29 AM CDT 9:25 PM CDT
Astronomical Twilight 4:53 AM CDT 10:01 PM CDT
Moon 5:27 AM CDT (8/5) 7:25 PM CDT (8/5)
Length of Visible Light 14h 47m
Length of Day
13h 51m
Waning Crescent, 1% of the Moon is Illuminated
Aug 5
Waning Crescent
Aug 6
New
Aug 14
First Quarter
Aug 20
Full
Aug 28
Last Quarter

Hourly Weather History & Observations

Time (CDT) Temp. Heat Index Dew Point Humidity Pressure Visibility Wind Dir Wind Speed Gust Speed Precip Events Conditions
12:15 AM 73.4 °F - 69.8 °F 88% 30.02 in 10.0 mi SE 6.9 mph - N/A   Clear
12:35 AM 73.4 °F - 69.8 °F 88% 30.01 in 10.0 mi SE 6.9 mph - N/A   Clear
12:55 AM 73.4 °F - 69.8 °F 88% 30.00 in 10.0 mi SE 8.1 mph - N/A   Clear
1:15 AM 73.4 °F - 69.8 °F 88% 30.01 in 10.0 mi SSE 8.1 mph - N/A   Clear
1:35 AM 73.4 °F - 69.8 °F 88% 30.01 in 10.0 mi SE 6.9 mph - N/A   Clear
1:55 AM 73.4 °F - 69.8 °F 88% 30.00 in 10.0 mi SE 8.1 mph - N/A   Clear
2:15 AM 75.2 °F - 71.6 °F 89% 30.00 in 10.0 mi SE 5.8 mph - N/A   Clear
2:35 AM 75.2 °F - 71.6 °F 89% 30.00 in 10.0 mi SE 4.6 mph - N/A   Clear
2:55 AM 75.2 °F - 69.8 °F 83% 30.00 in 10.0 mi SE 5.8 mph - N/A   Clear
3:15 AM 75.2 °F - 69.8 °F 83% 30.00 in 10.0 mi ESE 4.6 mph - N/A   Clear
3:35 AM 75.2 °F - 69.8 °F 83% 30.00 in 10.0 mi ESE 4.6 mph - N/A   Clear
3:55 AM 73.4 °F - 69.8 °F 88% 29.99 in 10.0 mi SE 5.8 mph - N/A   Clear
4:15 AM 73.4 °F - 69.8 °F 88% 29.99 in 10.0 mi SSE 4.6 mph - N/A   Scattered Clouds
4:35 AM 73.4 °F - 71.6 °F 94% 29.99 in 10.0 mi SSE 4.6 mph - N/A   Clear
4:55 AM 73.4 °F - 71.6 °F 94% 29.98 in 10.0 mi SSE 4.6 mph - N/A   Clear
5:15 AM 73.4 °F - 71.6 °F 94% 29.98 in 10.0 mi South 6.9 mph - N/A   Clear
5:35 AM 73.4 °F - 71.6 °F 94% 29.98 in 10.0 mi South 6.9 mph - N/A   Clear
5:55 AM 73.4 °F - 71.6 °F 94% 29.98 in 10.0 mi South 5.8 mph - N/A   Clear
6:15 AM 73.4 °F - 69.8 °F 88% 29.99 in 10.0 mi Calm Calm - N/A   Clear
6:35 AM 73.4 °F - 71.6 °F 94% 30.00 in 10.0 mi SSE 3.5 mph - N/A   Clear
6:55 AM 73.4 °F - 71.6 °F 94% 30.00 in 7.0 mi Calm Calm - N/A   Clear
7:15 AM 73.4 °F - 71.6 °F 94% 30.00 in 7.0 mi Calm Calm - N/A   Clear
7:35 AM 73.4 °F - 71.6 °F 94% 30.00 in 7.0 mi ESE 3.5 mph - N/A   Clear
7:55 AM 75.2 °F - 71.6 °F 89% 30.00 in 10.0 mi ESE 4.6 mph - N/A   Clear
8:15 AM 75.2 °F - 71.6 °F 89% 30.00 in 10.0 mi ESE 5.8 mph - N/A   Clear
8:35 AM 77.0 °F - 71.6 °F 83% 30.00 in 10.0 mi SE 5.8 mph - N/A   Clear
8:55 AM 78.8 °F - 73.4 °F 83% 29.99 in 10.0 mi SSE 8.1 mph - N/A   Clear
9:15 AM 78.8 °F - 73.4 °F 83% 29.99 in 10.0 mi SSE 9.2 mph - N/A   Clear
9:35 AM 78.8 °F - 73.4 °F 83% 29.99 in 10.0 mi South 10.4 mph - N/A   Clear
9:55 AM 80.6 °F 85.4 °F 73.4 °F 79% 29.98 in 10.0 mi South 9.2 mph - N/A   Clear
10:15 AM 82.4 °F 88.2 °F 73.4 °F 74% 29.98 in 10.0 mi South 9.2 mph - N/A   Clear
10:35 AM 82.4 °F 88.2 °F 73.4 °F 74% 29.97 in 10.0 mi SSW 10.4 mph - N/A   Clear
10:55 AM 84.2 °F 90.9 °F 73.4 °F 70% 29.97 in 10.0 mi SSW 12.7 mph 18.4 mph N/A   Clear
11:15 AM 86.0 °F 93.4 °F 73.4 °F 66% 29.96 in 10.0 mi South 11.5 mph 18.4 mph N/A   Clear
11:35 AM 86.0 °F 93.4 °F 73.4 °F 66% 29.95 in 10.0 mi SSW 12.7 mph - N/A   Clear
11:55 AM 87.8 °F 95.6 °F 73.4 °F 62% 29.96 in 10.0 mi South 11.5 mph - N/A   Clear
12:15 PM 87.8 °F 97.6 °F 75.2 °F 66% 29.95 in 10.0 mi SSW 13.8 mph 18.4 mph N/A   Clear
12:35 PM 89.6 °F 99.8 °F 75.2 °F 62% 29.95 in 10.0 mi SW 13.8 mph - N/A   Clear
12:55 PM 89.6 °F 98.2 °F 73.4 °F 59% 29.95 in 10.0 mi SSW 10.4 mph 17.3 mph N/A   Clear
1:15 PM 91.4 °F 102.5 °F 75.2 °F 59% 29.94 in 10.0 mi SSW 11.5 mph - N/A   Clear
1:35 PM 91.4 °F 102.5 °F 75.2 °F 59% 29.93 in 10.0 mi SSW 9.2 mph - N/A   Clear
1:55 PM 91.4 °F 102.5 °F 75.2 °F 59% 29.93 in 10.0 mi South 13.8 mph 18.4 mph N/A   Clear
2:15 PM 91.4 °F 100.1 °F 73.4 °F 55% 29.93 in 10.0 mi SSW 11.5 mph - N/A   Clear
2:35 PM 93.2 °F 105.0 °F 75.2 °F 56% 29.92 in 10.0 mi SSW 11.5 mph - N/A   Clear
2:55 PM 93.2 °F 102.4 °F 73.4 °F 52% 29.92 in 10.0 mi SW 8.1 mph - N/A   Clear
3:15 PM 95.0 °F 104.5 °F 73.4 °F 49% 29.91 in 10.0 mi SSW 13.8 mph 17.3 mph N/A   Clear
3:35 PM 93.2 °F 102.4 °F 73.4 °F 52% 29.91 in 10.0 mi SW 11.5 mph - N/A   Clear
3:55 PM 95.0 °F 104.5 °F 73.4 °F 49% 29.90 in 10.0 mi SW 5.8 mph - N/A   Clear
4:15 PM 93.2 °F 102.4 °F 73.4 °F 52% 29.89 in 10.0 mi SSW 6.9 mph - N/A   Clear
4:35 PM 93.2 °F 102.4 °F 73.4 °F 52% 29.89 in 10.0 mi SSW 8.1 mph - N/A   Clear
4:55 PM 91.4 °F 100.1 °F 73.4 °F 55% 29.88 in 10.0 mi SSW 8.1 mph - N/A   Clear
5:15 PM 91.4 °F 105.1 °F 77.0 °F 63% 29.88 in 10.0 mi South 6.9 mph - N/A   Clear
5:35 PM 91.4 °F 105.1 °F 77.0 °F 63% 29.87 in 10.0 mi South 8.1 mph - N/A   Clear
5:55 PM 91.4 °F 105.1 °F 77.0 °F 63% 29.86 in 10.0 mi South 8.1 mph - N/A   Clear
6:15 PM 91.4 °F 102.5 °F 75.2 °F 59% 29.86 in 10.0 mi South 9.2 mph - N/A   Clear
6:35 PM 91.4 °F 105.1 °F 77.0 °F 63% 29.86 in 10.0 mi South 6.9 mph - N/A   Clear
6:55 PM 91.4 °F 102.5 °F 75.2 °F 59% 29.86 in 10.0 mi South 8.1 mph - N/A   Clear
7:15 PM 89.6 °F 102.2 °F 77.0 °F 66% 29.85 in 10.0 mi South 8.1 mph - N/A   Clear
7:35 PM 89.6 °F 102.2 °F 77.0 °F 66% 29.85 in 10.0 mi South 6.9 mph - N/A   Clear
7:55 PM 87.8 °F 97.6 °F 75.2 °F 66% 29.86 in 10.0 mi South 6.9 mph - N/A   Clear
8:15 PM 86.0 °F 95.1 °F 75.2 °F 70% 29.86 in 10.0 mi South 5.8 mph - N/A   Clear
8:35 PM 84.2 °F 92.3 °F 75.2 °F 74% 29.86 in 10.0 mi SSE 4.6 mph - N/A   Clear
8:55 PM 82.4 °F 89.5 °F 75.2 °F 79% 29.86 in 10.0 mi SSE 5.8 mph - N/A   Clear
9:15 PM 82.4 °F 89.5 °F 75.2 °F 79% 29.86 in 10.0 mi SSE 5.8 mph - N/A   Clear
9:35 PM 82.4 °F 88.2 °F 73.4 °F 74% 29.86 in 10.0 mi South 5.8 mph - N/A   Clear
9:55 PM 82.4 °F 88.2 °F 73.4 °F 74% 29.84 in 10.0 mi South 8.1 mph - N/A   Clear
10:15 PM 82.4 °F 88.2 °F 73.4 °F 74% 29.87 in 10.0 mi South 6.9 mph - N/A   Clear
10:35 PM 82.4 °F 88.2 °F 73.4 °F 74% 29.88 in 10.0 mi South 5.8 mph - N/A   Clear
10:55 PM 80.6 °F 85.4 °F 73.4 °F 79% 29.87 in 10.0 mi South 5.8 mph - N/A   Clear
11:15 PM 80.6 °F 85.4 °F 73.4 °F 79% 29.86 in 10.0 mi South 6.9 mph - N/A   Clear
11:35 PM 80.6 °F 85.4 °F 73.4 °F 79% 29.87 in 10.0 mi South 5.8 mph - N/A   Clear
11:55 PM 80.6 °F 85.4 °F 73.4 °F 79% 29.88 in 10.0 mi South 3.5 mph - N/A   Clear